Terminal Aerodrome Forecast
Issued by NWS North Platte, NE

Home | Current Version | Previous Version | Graphics & Text | Print | Product List | Glossary On
Versions: 1 2 3 4 5 6 7 8 9 10 11 12 13 14
000
FTUS43 KLBF 191700
TAFVTN
TAF
KVTN 191728Z 1918/2018 33011KT P6SM SCT150
     FM192000 32008KT P6SM SCT100 BKN200
     FM200600 32005KT P6SM BKN080=

USA.gov is the U.S. government's official web portal to all federal, state and local government web resources and services.